FW1323 Weather Reports


time (UTC)temp
F
wind
direction
speed
knots
gust
knots
rain 1hr
in
rain 24hr
in
rain mn
in
humidity
%
barometer
mb
20260509053010 53 346 1.7 5.2 0.01 0.07 0.02 97 1008.2
20260509051605 53 338 1.7 5.2 0.01 0.07 0.02 96 1008.1
20260509050002 53 337 1.7 3.5 0.02 0.07 0.02 96 1007.9
20260509044559 53 324 1.7 5.2 0.02 0.07 0.02 96 1007.8
20260509043059 53 331 2.6 6.1 0.01 0.06 0.01 96 1008.2
20260509041556 54 350 2.6 5.2 0.02 0.06 0.01 95 1008.1
20260509040104 54 340 1.7 2.6 0.02 0.05 0.05 95 1008.4
20260509034553 54 336 1.7 4.3 0.03 0.05 0.05 94 1008.6
20260509033053 54 315 0.9 3.5 0.03 0.04 0.04 94 1008.8
20260509031552 54 345 0.9 3.5 0.04 0.04 0.04 94 1008.7
20260509030051 54 346 0.0 1.7 0.03 0.03 0.03 93 1008.9
20260509024550 54 346 0.9 4.3 0.02 0.02 0.02 93 1008.8
20260509023049 54 341 0.9 3.5 0.01 0.01 0.01 92 1008.9
20260509021549 54 296 0.9 7.8 0.00 0.00 0.00 91 1009.2
20260509020048 55 327 2.6 7.8 0.00 0.00 0.00 90 1009.2
20260509014546 55 321 3.5 7.8 0.00 0.00 0.00 88 1009.0
20260509013058 56 311 5.2 8.7 0.00 0.00 0.00 85 1009.0
20260509011545 57 324 3.5 7.8 0.00 0.00 0.00 83 1008.7
20260509010044 57 3 1.7 5.2 0.00 0.00 0.00 80 1008.1
20260509004604 58 4 1.7 3.5 0.00 0.00 0.00 79 1007.9
20260509003045 59 357 3.5 7.0 0.00 0.00 0.00 76 1008.0
20260509001542 61 324 5.2 10.4 0.00 0.00 0.00 71 1008.2
20260509000040 63 249 0.0 1.7 0.00 0.00 0.00 64 1007.9
20260508234539 63 247 0.0 1.7 0.00 0.00 0.00 63 1008.0
20260508233038 63 241 1.7 6.1 0.00 0.00 0.00 61 1007.9
20260508231538 64 230 0.9 4.3 0.00 0.00 0.00 61 1007.8
20260508230051 64 234 1.7 3.5 0.00 0.00 0.00 60 1007.7
20260508224536 64 237 1.7 3.5 0.00 0.00 0.00 60 1007.8
20260508223036 64 237 0.9 2.6 0.00 0.00 0.00 60 1007.7
20260508221537 64 238 1.7 3.5 0.00 0.00 0.00 59 1007.7
20260508220034 65 240 0.9 6.1 0.00 0.00 0.00 58 1007.7
20260508214533 66 219 0.9 6.1 0.00 0.00 0.00 55 1007.6
20260508213032 66 268 4.3 12.2 0.00 0.00 0.00 54 1007.8
20260508211534 66 252 6.1 10.4 0.00 0.00 0.00 52 1007.8
20260508210035 66 239 4.3 10.4 0.00 0.00 0.00 52 1008.0
20260508204529 66 236 4.3 7.8 0.00 0.00 0.00 52 1008.0
20260508203027 66 233 7.0 12.2 0.00 0.00 0.00 51 1008.1
20260508201525 65 230 6.1 12.2 0.00 0.00 0.00 51 1008.6
20260508200036 65 211 3.5 9.6 0.00 0.00 0.00 54 1009.1
20260508194521 65 244 5.2 8.7 0.00 0.00 0.00 53 1009.5
20260508193020 65 247 6.1 13.0 0.00 0.00 0.00 51 1009.5
20260508191518 65 248 5.2 12.2 0.00 0.00 0.00 51 1009.8
20260508190017 66 239 3.5 14.8 0.00 0.00 0.00 50 1009.9
20260508184528 66 272 7.0 17.4 0.00 0.00 0.00 47 1010.0
20260508183015 66 278 7.0 14.8 0.00 0.00 0.00 49 1010.0
20260508181527 66 214 9.6 18.2 0.00 0.00 0.00 49 1010.0
20260508180012 67 282 7.0 12.2 0.00 0.00 0.00 51 1010.4
20260508174513 65 246 7.8 14.8 0.00 0.00 0.00 54 1010.8
20260508173005 66 228 5.2 17.4 0.00 0.00 0.00 54 1011.1
20260508171501 64 197 4.3 14.8 0.00 0.00 0.00 55 1011.3
20260508170059 63 251 8.7 17.4 0.00 0.00 0.00 56 1011.7
20260508164603 63 239 6.1 13.9 0.00 0.00 0.00 56 1012.0
20260508163058 62 245 7.8 13.9 0.00 0.00 0.00 57 1012.2
20260508161553 62 232 8.7 15.6 0.00 0.00 0.00 57 1012.5
20260508160049 62 245 11.3 21.7 0.00 0.00 0.00 57 1012.6
20260508154546 61 199 12.2 20.0 0.00 0.00 0.00 57 1012.8
20260508153049 61 214 7.8 20.9 0.00 0.00 0.00 58 1012.7
20260508151549 61 213 9.6 20.0 0.00 0.00 0.00 58 1012.8
20260508150045 59 249 11.3 19.1 0.00 0.00 0.00 58 1012.9
20260508144546 59 199 7.8 15.6 0.00 0.00 0.00 59 1013.1
20260508143037 58 245 10.4 17.4 0.00 0.00 0.00 58 1013.2
20260508141534 57 248 7.0 20.0 0.00 0.00 0.00 59 1013.1
20260508140031 56 235 9.6 15.6 0.00 0.00 0.00 60 1013.5
20260508134537 55 247 8.7 18.2 0.00 0.00 0.00 60 1013.5
20260508133032 55 233 7.0 15.6 0.00 0.00 0.00 61 1013.4
20260508131523 54 189 5.2 11.3 0.00 0.00 0.00 62 1013.4
20260508130020 53 263 6.1 13.0 0.00 0.00 0.00 63 1013.4
20260508124516 52 240 4.3 14.8 0.00 0.00 0.00 64 1013.5
20260508123012 51 199 4.3 10.4 0.00 0.00 0.00 65 1013.4
20260508121511 50 243 4.3 9.6 0.00 0.00 0.00 65 1013.3
20260508120006 49 228 3.5 7.8 0.00 0.00 0.00 67 1013.1
20260508114504 48 203 3.5 7.8 0.00 0.00 0.00 68 1013.1
20260508113003 47 204 3.5 7.0 0.00 0.00 0.00 69 1013.1
20260508111505 47 208 4.3 7.0 0.00 0.00 0.00 70 1013.0
20260508104559 47 212 2.6 5.2 0.00 0.00 0.00 69 1012.9
20260508103101 47 224 2.6 7.0 0.00 0.00 0.00 68 1012.9
20260508101615 48 191 3.5 7.8 0.00 0.00 0.00 68 1012.8
20260508100056 48 203 2.6 5.2 0.00 0.00 0.00 67 1012.8
20260508094554 49 220 2.6 7.0 0.00 0.00 0.00 66 1012.8
20260508093054 49 205 3.5 7.0 0.00 0.00 0.00 66 1012.8
20260508091604 49 204 3.5 11.3 0.00 0.00 0.00 66 1012.9
20260508090108 49 218 3.5 9.6 0.00 0.00 0.00 66 1012.8
20260508084550 48 216 2.6 7.0 0.00 0.00 0.00 67 1012.8
20260508083048 48 223 3.5 7.8 0.00 0.00 0.00 67 1012.9
20260508081551 48 217 1.7 7.0 0.00 0.00 0.00 67 1013.0
20260508080147 48 245 2.6 5.2 0.00 0.00 0.00 68 1012.9
20260508074546 48 208 2.6 6.1 0.00 0.00 0.00 67 1012.9
20260508073046 48 205 2.6 7.0 0.00 0.00 0.00 68 1012.8
20260508071553 48 211 2.6 6.1 0.00 0.00 0.00 68 1013.0
20260508070044 48 198 3.5 7.0 0.00 0.00 0.00 67 1013.0
20260508064540 48 203 3.5 7.8 0.00 0.00 0.00 67 1013.1
20260508063040 48 212 4.3 7.0 0.00 0.00 0.00 67 1013.2
20260508061538 48 214 3.5 7.0 0.00 0.00 0.00 68 1013.4
20260508060036 47 205 1.7 6.1 0.00 0.00 0.00 69 1013.6
20260508054533 47 204 1.7 5.2 0.00 0.00 0.00 70 1013.7